Wind_Speed
19 19 20 21 21 20 21 24 24 22 20 18 18 17 16 14 12 11 10 9 7 6 5 5 6 7 7 8 8 9 9 8 7 7 7 6 6 6 6 6 6 5 5 5 5 5 5 4 4
18 18 19 20 21 20 22 24 24 22 20 20 20 18 17 14 13 11 10 9 7 5 5 5 5 6 6 7 7 8 8 7 7 7 6 6 6 6 6 6 6 6 5 5 5 5 5 5 4
17 17 19 20 21 22 24 24 24 22 21 21 20 19 16 14 12 11 10 9 7 5 5 5 5 5 5 6 6 6 6 6 7 7 6 6 6 6 6 6 6 6 6 6 5 5 5 4 4
16 17 18 19 21 23 24 24 24 23 23 22 21 19 16 14 12 11 10 9 7 6 5 5 4 4 4 5 5 5 6 6 6 7 6 6 6 6 6 6 6 6 6 6 5 5 5 5 4
14 16 17 19 21 23 24 25 25 24 23 22 21 19 17 15 13 12 10 9 7 6 6 5 4 4 4 4 4 4 5 5 5 6 6 6 6 6 6 6 6 5 5 6 5 5 5 5 5
14 15 17 20 22 23 25 25 25 24 23 22 21 19 18 16 14 13 11 9 8 6 6 5 4 4 3 3 3 3 4 4 4 5 5 5 5 5 6 5 6 5 5 4 4 5 5 5 5
14 14 17 20 22 23 24 24 24 22 22 21 20 19 19 17 15 14 12 10 9 7 6 6 5 4 3 2 2 2 3 3 4 4 4 4 5 5 5 5 5 5 4 4 4 5 5 5 5
12 14 17 20 21 21 22 23 22 22 22 21 21 20 19 18 16 15 13 11 10 9 7 6 5 4 3 3 2 2 2 2 2 3 3 4 4 4 5 5 4 4 4 4 5 4 5 6 5
10 12 15 17 19 20 20 21 21 21 22 22 21 20 19 18 17 15 13 12 11 10 9 7 6 4 3 3 2 2 2 2 2 2 3 3 3 4 4 4 5 4 4 5 5 5 5 5 5
9 11 13 15 17 18 19 20 20 21 21 22 22 21 20 19 17 15 13 12 12 11 10 8 6 5 4 2 1 1 1 1 1 1 2 2 3 3 4 4 4 4 4 5 5 4 5 5 5
8 10 11 14 16 17 19 19 19 20 20 21 21 21 20 19 17 15 13 12 11 11 11 9 7 5 4 3 1 1 1 1 1 1 1 1 2 3 3 3 4 4 4 4 4 4 4 4 5
6 9 10 13 14 16 18 18 18 19 19 20 20 21 20 18 17 15 13 12 12 11 11 9 7 6 5 3 2 2 1 2 2 2 2 2 2 2 3 2 2 3 3 4 4 4 4 4 4
5 7 9 11 12 14 16 17 18 18 18 19 20 20 20 18 17 16 14 13 12 12 11 9 7 5 5 4 2 2 1 1 2 3 3 3 2 2 2 2 2 2 3 3 3 3 3 3 4
4 5 7 9 11 12 13 14 16 17 17 18 19 19 20 18 18 16 14 14 13 12 11 10 8 6 5 4 2 2 1 0 2 3 3 3 3 2 2 2 2 2 3 3 3 3 2 3 2
2 4 5 7 9 10 11 13 14 15 16 17 18 19 19 18 18 17 15 14 13 11 10 10 9 7 5 3 2 2 0 1 1 2 3 4 3 2 2 2 3 2 2 2 2 1 1 1 1
1 1 3 5 7 9 11 13 13 14 14 16 18 19 19 18 18 18 16 15 14 12 11 9 9 8 5 4 3 2 2 2 2 2 3 3 3 2 2 3 3 2 2 2 1 0 0 0 0
3 1 1 2 4 6 9 11 12 13 14 15 16 17 18 18 18 18 17 16 14 13 11 10 9 8 5 4 3 3 3 2 3 3 3 3 3 3 4 4 3 3 2 2 2 2 2 1 1
5 4 2 3 4 5 8 9 11 12 13 14 15 16 17 18 18 18 17 17 15 13 11 10 9 7 5 3 3 4 5 4 4 4 4 4 4 4 5 5 5 4 4 3 3 3 3 3 2
7 5 4 4 5 6 7 8 10 11 12 13 15 16 16 17 18 18 17 17 17 15 13 11 10 7 5 4 4 3 4 5 4 4 5 5 5 5 5 6 6 5 5 4 4 4 4 4 4
7 7 6 6 7 7 7 8 9 11 12 12 14 15 16 17 17 18 17 17 17 15 13 11 11 8 6 4 4 3 4 5 5 4 4 5 4 5 6 6 6 6 5 5 5 5 5 5 5
9 8 8 8 8 7 8 9 10 10 11 12 14 15 15 16 16 17 17 17 16 15 14 12 10 9 6 4 3 3 3 4 5 5 5 5 5 5 5 7 7 7 6 5 5 5 6 6 6
11 10 10 10 9 8 8 8 9 10 12 12 14 15 15 15 15 16 16 17 16 15 14 12 9 8 6 4 2 2 3 4 5 5 5 5 5 5 5 7 8 8 8 7 7 7 7 7 8
13 12 11 10 10 9 9 8 9 10 12 12 13 13 14 15 15 15 16 16 15 14 13 11 9 8 7 5 3 2 3 3 5 6 6 6 6 6 6 7 9 9 9 9 9 9 9 9 9
15 13 12 12 11 11 10 9 9 9 10 11 12 13 14 15 15 16 15 16 15 14 12 9 8 7 6 5 3 2 3 4 5 6 7 7 7 7 8 7 8 10 10 10 10 10 10 11 11
15 14 13 13 12 12 11 10 9 8 9 11 12 13 14 16 16 16 16 16 15 13 11 9 7 6 5 5 5 3 3 3 4 6 7 8 8 9 9 9 9 9 10 11 12 12 12 12 13
16 15 15 14 13 12 12 11 9 9 10 11 13 14 15 16 16 16 17 16 15 13 10 9 7 6 5 5 5 4 4 4 5 6 7 8 9 9 10 10 10 10 11 11 12 13 13 14 14
17 16 15 16 15 14 13 12 10 10 11 11 13 14 16 16 15 16 17 16 14 12 10 9 7 6 6 6 6 6 6 5 6 6 7 8 9 9 9 10 10 11 11 12 13 13 14 14 15
20 18 17 17 17 16 14 13 12 11 11 12 13 14 15 16 16 16 17 16 13 11 9 9 8 7 7 7 7 7 7 6 6 7 7 8 8 9 10 10 11 12 12 12 12 13 14 14 15
20 19 19 19 18 17 16 14 13 13 13 13 13 13 14 15 16 16 15 16 13 11 10 9 9 8 8 8 8 8 7 7 7 7 7 7 8 9 9 10 10 11 12 13 13 14 15 16 17
21 20 19 19 18 18 17 14 13 13 13 14 14 13 13 15 16 16 15 15 14 12 10 10 9 9 9 9 8 8 8 7 7 7 7 8 8 9 10 11 12 12 12 13 14 15 16 16 17
Wind_Direction
70 70 70 68 65 63 62 61 57 55 54 54 54 53 51 50 49 51 52 53 51 53 62 68 69 71 70 69 69 70 68 70 70 68 63 58 54 53 54 53 55 59 61 59 55 59 62 70 81
72 68 69 68 67 63 61 59 53 50 48 49 49 48 46 45 46 48 48 44 43 44 54 63 65 66 69 70 70 71 68 68 67 64 63 60 57 56 57 59 57 57 59 58 58 56 61 69 80
72 69 69 69 69 65 61 59 55 49 45 46 47 45 42 40 42 43 42 38 34 35 48 60 62 64 67 68 68 72 69 67 64 59 60 59 58 57 59 58 55 56 58 60 60 62 67 71 78
71 70 68 69 67 65 61 57 53 48 43 43 45 43 40 37 38 40 40 37 34 38 50 59 61 65 69 71 70 72 72 70 63 56 58 60 59 57 56 54 57 58 60 60 60 64 67 73 78
73 70 67 66 64 63 61 56 51 47 41 40 42 39 35 33 35 38 39 37 38 43 50 55 59 64 69 74 75 74 72 71 68 62 60 61 63 62 57 56 58 59 61 61 59 60 65 68 76
75 71 66 62 61 60 59 55 49 44 39 37 37 35 33 30 30 33 35 34 35 43 48 51 55 64 70 72 80 81 76 76 75 69 64 63 64 59 55 56 55 60 60 59 60 62 66 72 78
71 67 64 62 59 57 55 53 48 42 38 35 34 32 32 30 29 30 32 34 35 40 45 45 46 59 70 81 88 96 87 80 77 77 76 68 63 61 60 56 57 60 54 56 64 64 68 72 79
70 63 63 62 58 53 52 50 46 42 37 34 33 32 30 29 28 29 33 36 37 39 40 42 46 50 59 76 92 105 102 91 88 90 85 71 61 65 63 62 67 67 60 60 67 67 69 73 77
70 62 60 60 57 52 51 48 44 41 36 33 31 30 27 26 25 28 33 35 36 37 36 38 43 50 59 67 80 99 123 108 101 93 91 80 70 71 72 74 78 73 68 68 67 69 72 75 77
62 56 58 58 55 51 49 47 44 41 35 31 28 25 21 20 21 26 30 32 36 34 33 36 39 48 59 64 60 90 130 133 116 111 104 90 81 79 79 83 84 74 75 73 70 71 75 77 81
52 57 58 56 52 51 48 46 44 40 33 29 25 22 18 16 17 22 25 28 29 28 28 32 32 40 46 48 63 98 127 152 170 172 149 129 101 93 93 95 86 76 73 75 73 71 74 79 84
53 63 63 58 52 50 48 47 43 37 32 26 22 20 17 17 17 19 22 24 25 23 24 25 31 31 31 41 82 104 124 171 199 204 192 166 136 117 111 103 88 84 76 77 78 68 72 81 80
60 66 63 58 51 47 46 44 40 34 30 26 22 20 19 19 19 18 20 19 17 17 16 16 20 24 27 33 56 71 103 202 213 209 197 191 166 146 129 114 111 100 88 84 85 73 71 81 78
73 67 69 60 50 45 44 40 36 32 28 25 22 21 20 18 18 17 18 16 14 12 9 7 7 8 13 21 22 35 38 231 209 209 196 188 178 168 146 139 138 119 102 92 90 77 75 86 86
95 75 70 54 44 41 40 34 31 28 26 24 23 20 19 18 17 16 15 12 12 10 6 2 360 357 353 351 351 338 1 175 177 185 190 190 187 182 177 162 161 150 128 115 100 79 54 75 95
165 105 60 39 37 34 33 27 24 22 20 19 19 18 18 15 14 14 12 11 11 7 0 358 356 357 353 336 327 309 251 211 200 200 190 190 190 194 185 188 180 176 176 185 181 185 355 14 8
221 232 325 10 21 22 22 23 18 14 13 14 15 15 15 13 9 10 10 10 7 3 359 358 355 356 347 336 316 285 265 213 200 202 197 199 208 211 204 207 207 203 210 225 240 244 247 271 286
231 235 254 306 341 358 6 11 9 6 8 10 12 13 12 10 6 6 7 8 5 2 358 357 353 350 339 320 292 265 248 229 217 216 211 207 213 215 212 213 218 221 226 236 244 247 251 262 274
234 238 262 294 318 336 352 360 360 2 5 7 8 9 8 5 3 4 4 4 3 359 356 355 351 345 334 317 297 247 232 228 225 226 216 206 216 219 219 218 226 231 234 237 241 248 254 257 263
236 244 265 290 306 320 335 343 347 356 0 1 2 2 3 1 0 2 1 360 358 357 355 353 352 347 335 324 306 254 229 223 219 222 210 212 227 232 232 231 230 235 237 239 241 248 251 254 256
239 251 265 282 296 305 323 338 342 350 354 357 360 1 2 359 360 1 357 355 355 356 355 352 349 349 342 331 304 268 240 228 222 220 215 223 234 240 241 237 233 234 237 241 245 253 261 263 262
239 249 259 271 284 295 311 326 338 345 351 355 355 355 358 358 356 356 352 351 353 355 353 353 354 358 360 358 335 274 240 226 223 224 224 228 230 237 241 242 240 239 242 246 250 258 266 267 269
240 248 255 263 274 285 296 311 330 341 350 353 351 351 355 354 355 352 349 350 351 352 349 352 357 1 4 3 354 273 246 245 227 230 233 234 234 239 246 248 244 246 249 253 256 260 266 269 271
240 249 255 261 269 276 289 304 324 337 347 350 349 350 351 351 349 348 349 350 351 351 349 351 355 360 4 2 350 312 270 263 249 241 240 239 241 244 248 250 249 251 251 256 260 263 266 271 273
240 248 255 259 265 274 286 297 313 325 337 345 349 348 350 351 347 348 350 351 352 349 352 351 351 355 356 357 346 321 295 273 262 261 250 246 247 248 246 248 253 257 260 261 262 263 268 271 274
243 248 254 258 264 268 277 287 302 314 324 334 342 345 350 349 346 347 351 348 348 348 346 347 348 349 347 349 345 335 317 296 278 271 262 253 250 250 249 253 256 260 266 266 265 265 271 273 275
244 247 252 256 262 266 273 283 292 306 319 327 337 342 344 345 345 349 351 351 351 348 346 343 345 347 344 344 341 333 319 307 290 278 270 261 256 253 253 256 258 264 267 269 268 269 274 275 276
242 245 249 254 260 265 271 277 287 295 308 316 326 332 338 342 345 348 350 352 354 354 350 347 344 339 334 333 333 330 316 305 300 287 281 272 266 261 259 259 262 265 267 267 271 274 277 279 280
241 246 251 256 260 263 268 274 284 293 299 307 318 323 330 338 347 349 350 352 353 353 349 343 338 337 332 329 329 329 323 311 302 290 283 279 270 265 266 265 267 268 269 270 272 275 278 280 282
241 245 250 255 259 263 266 270 276 285 293 304 313 322 330 334 342 347 348 348 347 346 342 338 332 330 330 331 329 327 326 315 300 288 283 282 276 273 273 272 271 272 273 276 276 276 280 282 281
Height
5904 5903 5903 5902 5901 5899 5897 5895 5894 5894 5894 5893 5892 5891 5890 5891 5891 5893 5890 5889 5889 5889 5888 5888 5888 5888 5888 5888 5888 5888 5889 5889 5890 5890 5891 5891 5891 5891 5892 5892 5892 5892 5892 5891 5891 5891 5891 5891 5891
5907 5907 5906 5905 5903 5901 5900 5897 5896 5896 5896 5895 5893 5892 5892 5891 5891 5891 5890 5890 5890 5889 5889 5889 5889 5889 5889 5888 5888 5889 5889 5890 5890 5890 5891 5891 5892 5892 5892 5892 5892 5892 5892 5892 5892 5892 5891 5891 5891
5910 5909 5909 5907 5905 5903 5902 5900 5900 5899 5898 5896 5895 5895 5894 5894 5893 5892 5891 5891 5891 5890 5890 5890 5889 5889 5889 5889 5889 5889 5890 5890 5891 5891 5891 5892 5892 5893 5893 5893 5893 5893 5893 5893 5893 5892 5892 5892 5892
5913 5913 5912 5910 5907 5906 5905 5903 5902 5901 5900 5899 5898 5897 5896 5896 5895 5894 5893 5892 5892 5891 5890 5890 5890 5890 5890 5890 5890 5890 5891 5891 5891 5892 5892 5892 5893 5893 5893 5893 5894 5894 5893 5893 5893 5893 5893 5893 5893
5915 5915 5914 5911 5909 5908 5907 5906 5905 5904 5903 5902 5900 5899 5898 5898 5896 5895 5894 5893 5893 5892 5891 5890 5890 5890 5890 5890 5891 5891 5891 5891 5892 5892 5893 5893 5893 5894 5894 5894 5894 5894 5894 5894 5894 5894 5894 5894 5894
5918 5917 5916 5913 5912 5911 5909 5908 5907 5907 5906 5905 5903 5902 5900 5899 5898 5896 5895 5894 5893 5892 5891 5891 5890 5890 5890 5891 5891 5891 5891 5892 5892 5893 5893 5893 5894 5894 5894 5895 5895 5895 5895 5895 5895 5895 5895 5895 5895
5920 5919 5917 5916 5914 5913 5912 5911 5910 5910 5909 5907 5905 5904 5902 5901 5899 5897 5896 5895 5894 5893 5892 5891 5891 5891 5891 5891 5891 5891 5892 5892 5893 5893 5894 5894 5894 5895 5895 5895 5896 5896 5896 5896 5896 5896 5896 5896 5896
5921 5921 5919 5918 5917 5916 5915 5914 5913 5913 5911 5910 5908 5906 5904 5903 5900 5899 5897 5896 5895 5893 5892 5892 5891 5891 5891 5891 5891 5892 5892 5893 5893 5894 5894 5894 5895 5895 5896 5896 5896 5896 5896 5896 5897 5897 5897 5897 5897
5923 5924 5921 5920 5919 5919 5918 5917 5916 5915 5914 5912 5910 5908 5906 5904 5902 5900 5898 5897 5896 5894 5893 5892 5892 5891 5891 5891 5892 5892 5892 5893 5893 5894 5895 5895 5895 5896 5896 5896 5897 5897 5897 5897 5897 5898 5898 5898 5898
5925 5924 5923 5922 5922 5921 5920 5919 5918 5917 5916 5914 5912 5910 5907 5905 5904 5902 5900 5898 5897 5895 5894 5893 5892 5892 5892 5892 5892 5892 5893 5893 5893 5894 5895 5895 5896 5896 5897 5897 5897 5898 5898 5898 5898 5899 5899 5899 5899
5926 5926 5925 5924 5923 5922 5921 5920 5920 5919 5918 5916 5914 5911 5909 5907 5905 5903 5901 5899 5898 5896 5895 5893 5893 5892 5892 5892 5892 5892 5892 5893 5893 5894 5895 5895 5896 5896 5897 5898 5898 5898 5899 5899 5899 5899 5900 5900 5900
5928 5927 5926 5926 5925 5924 5923 5922 5921 5921 5920 5918 5916 5913 5911 5909 5906 5904 5902 5900 5898 5897 5895 5894 5893 5893 5892 5891 5891 5892 5892 5893 5893 5894 5895 5895 5896 5897 5897 5898 5899 5899 5900 5900 5900 5900 5901 5901 5901
5929 5928 5928 5927 5926 5925 5925 5924 5923 5922 5921 5919 5917 5915 5912 5910 5908 5905 5903 5901 5899 5897 5896 5895 5894 5893 5892 5891 5891 5891 5892 5892 5893 5893 5895 5895 5896 5897 5898 5898 5899 5900 5900 5901 5901 5901 5901 5902 5902
5929 5929 5929 5928 5927 5927 5926 5926 5925 5924 5922 5921 5919 5916 5914 5911 5908 5906 5904 5901 5899 5898 5896 5895 5894 5892 5892 5891 5891 5892 5892 5892 5892 5893 5894 5895 5896 5897 5898 5899 5899 5900 5900 5901 5901 5902 5902 5902 5902
5930 5930 5930 5929 5928 5928 5928 5927 5926 5925 5923 5921 5919 5917 5914 5912 5909 5906 5904 5902 5900 5898 5896 5894 5893 5892 5891 5891 5891 5892 5892 5892 5892 5893 5894 5895 5896 5897 5898 5899 5899 5900 5901 5901 5902 5902 5902 5903 5903
5930 5931 5930 5930 5929 5929 5930 5929 5928 5926 5924 5922 5919 5917 5914 5912 5910 5907 5905 5902 5900 5898 5896 5894 5893 5892 5891 5890 5890 5891 5891 5892 5892 5893 5894 5895 5896 5897 5898 5899 5899 5900 5901 5901 5902 5902 5903 5903 5903
5930 5930 5930 5931 5930 5930 5930 5929 5929 5927 5925 5922 5920 5917 5915 5912 5910 5907 5905 5903 5900 5898 5896 5894 5893 5891 5890 5890 5890 5890 5891 5891 5892 5893 5893 5894 5895 5896 5897 5898 5899 5900 5900 5901 5901 5902 5902 5903 5903
5930 5930 5930 5930 5930 5930 5930 5929 5929 5927 5925 5923 5920 5917 5915 5913 5910 5907 5905 5903 5900 5898 5896 5894 5892 5891 5890 5889 5889 5890 5890 5891 5891 5892 5893 5894 5895 5896 5897 5897 5898 5899 5900 5901 5901 5901 5902 5902 5902
5929 5930 5930 5930 5930 5930 5929 5929 5929 5927 5925 5923 5921 5918 5915 5913 5911 5908 5905 5903 5900 5898 5895 5893 5892 5890 5889 5889 5888 5889 5889 5890 5891 5891 5892 5893 5894 5895 5896 5897 5898 5898 5899 5900 5900 5900 5901 5901 5902
5928 5929 5929 5930 5929 5929 5929 5929 5928 5927 5925 5923 5921 5918 5916 5913 5911 5908 5906 5903 5900 5898 5895 5893 5891 5890 5888 5888 5888 5888 5888 5889 5890 5891 5891 5892 5893 5894 5895 5896 5897 5897 5898 5899 5899 5899 5900 5900 5901
5927 5928 5929 5929 5929 5929 5929 5929 5928 5927 5925 5923 5921 5918 5916 5913 5911 5908 5905 5903 5900 5897 5895 5892 5890 5889 5887 5887 5887 5887 5888 5888 5889 5890 5890 5891 5892 5893 5893 5894 5895 5896 5897 5897 5898 5898 5899 5899 5899
5926 5927 5927 5928 5928 5928 5929 5928 5927 5926 5925 5923 5921 5918 5915 5913 5910 5908 5905 5902 5899 5897 5895 5892 5890 5888 5887 5886 5886 5886 5887 5887 5888 5888 5889 5890 5891 5892 5892 5892 5893 5894 5895 5896 5897 5897 5897 5897 5897
5924 5925 5926 5926 5927 5927 5927 5927 5928 5925 5924 5922 5920 5917 5915 5912 5910 5907 5905 5902 5899 5897 5894 5892 5890 5889 5887 5886 5886 5886 5886 5887 5887 5888 5889 5889 5890 5890 5890 5891 5892 5893 5894 5894 5895 5895 5895 5895 5895
5922 5924 5924 5925 5925 5926 5926 5926 5926 5925 5923 5921 5919 5917 5915 5912 5910 5907 5904 5902 5899 5896 5894 5892 5890 5889 5888 5887 5886 5886 5886 5886 5886 5887 5887 5888 5888 5889 5889 5889 5890 5891 5891 5892 5892 5893 5893 5893 5893
5920 5922 5923 5923 5923 5924 5925 5925 5925 5924 5922 5921 5919 5917 5914 5912 5909 5907 5904 5901 5898 5896 5894 5892 5890 5889 5889 5887 5886 5885 5885 5885 5885 5886 5886 5886 5887 5887 5887 5888 5888 5889 5889 5889 5890 5890 5890 5890 5890
5918 5920 5921 5922 5922 5923 5923 5923 5924 5923 5921 5920 5918 5916 5914 5911 5909 5906 5903 5900 5897 5895 5894 5892 5891 5889 5889 5888 5887 5885 5885 5884 5884 5884 5884 5884 5885 5885 5885 5886 5886 5886 5887 5887 5887 5888 5887 5887 5887
5915 5916 5918 5919 5920 5920 5921 5922 5922 5921 5920 5919 5917 5915 5913 5911 5908 5906 5903 5900 5897 5894 5893 5892 5891 5890 5888 5887 5886 5885 5884 5883 5883 5883 5883 5883 5883 5883 5883 5883 5884 5884 5884 5884 5884 5884 5884 5884 5883
5912 5913 5915 5916 5917 5918 5919 5919 5920 5919 5919 5918 5916 5914 5912 5910 5907 5905 5902 5899 5896 5895 5893 5892 5891 5889 5888 5887 5885 5884 5883 5883 5882 5881 5881 5881 5881 5881 5881 5881 5881 5881 5881 5881 5881 5881 5881 5880 5880
5909 5910 5911 5913 5914 5915 5916 5919 5918 5917 5917 5916 5915 5913 5911 5909 5907 5904 5902 5899 5896 5894 5893 5892 5890 5889 5888 5886 5885 5883 5882 5881 5880 5880 5879 5879 5879 5879 5879 5879 5878 5879 5879 5878 5878 5878 5877 5876 5876
5904 5906 5908 5910 5911 5912 5913 5917 5915 5915 5914 5914 5913 5911 5910 5908 5905 5903 5901 5899 5896 5894 5892 5891 5889 5888 5887 5885 5884 5883 5881 5880 5879 5878 5878 5877 5877 5877 5877 5876 5876 5876 5876 5875 5874 5874 5873 5872 5872